This is the latest recevied weather packets stored in our database for station/object EA7KZ-10. If no packets are shown the sender has not sent any weather packets the latest 10 day(s).
| Time | Temp. | Humidity | Pressure | Rain* | Wind** | Luminosity | Snow |
|---|---|---|---|---|---|---|---|
| 1778065200 | 20° C | 32% | 1011.5 hPa | - | - | - | - |
| 1778064600 | 20° C | 33% | 1011.5 hPa | - | - | - | - |
| 1778064000 | 20° C | 32% | 1011.7 hPa | - | - | - | - |
| 1778063400 | 20° C | 32% | 1011.7 hPa | - | - | - | - |
| 1778062800 | 20° C | 32% | 1011.7 hPa | - | - | - | - |
| 1778062200 | 20° C | 33% | 1011.6 hPa | - | - | - | - |
| 1778061600 | 20° C | 33% | 1011.8 hPa | - | - | - | - |
| 1778060999 | 19.44° C | 33% | 1011.9 hPa | - | - | - | - |
| 1778060399 | 20° C | 33% | 1011.8 hPa | - | - | - | - |
| 1778059800 | 20° C | 34% | 1011.9 hPa | - | - | - | - |
| 1778059200 | 19.44° C | 34% | 1011.9 hPa | - | - | - | - |
| 1778058600 | 19.44° C | 34% | 1011.8 hPa | - | - | - | - |
| 1778058000 | 19.44° C | 34% | 1011.9 hPa | - | - | - | - |
| 1778057399 | 19.44° C | 34% | 1011.8 hPa | - | - | - | - |
| 1778056800 | 19.44° C | 34% | 1011.9 hPa | - | - | - | - |
| 1778056199 | 19.44° C | 36% | 1012 hPa | - | - | - | - |
| 1778055599 | 19.44° C | 36% | 1011.9 hPa | - | - | - | - |
| 1778055000 | 18.89° C | 37% | 1012 hPa | - | - | - | - |
| 1778054400 | 18.89° C | 38% | 1012.1 hPa | - | - | - | - |
| 1778053799 | 18.33° C | 38% | 1012.1 hPa | - | - | - | - |
| 1778053199 | 18.33° C | 38% | 1012 hPa | - | - | - | - |
| 1778052599 | 18.33° C | 38% | 1012.2 hPa | - | - | - | - |
| 1778051999 | 17.78° C | 38% | 1012.3 hPa | - | - | - | - |
| 1778051400 | 17.78° C | 39% | 1012.5 hPa | - | - | - | - |
| 1778050800 | 17.78° C | 39% | 1012.4 hPa | - | - | - | - |
* Rain since midnight (hover to see other rain measurements)
** Current wind speed in m/s (hover to see current wind gust speed)